Location: Bukowiec Wielki
(50.2936°N, 22.7268°E)
Time: 09:24:45
(UTC+00:00)

Daily predictions for brighter satellites

Satellite Brightness Start Highest point End
(mag) Time Altitude Azimuth Time Altitude Azimuth Time Altitude Azimuth
STARLINK-1211 4.1 19:04:30 10° W 19:08:38 67° NNW 19:12:46 10° ENE
STARLINK-1121 3.7 19:05:16 10° WNW 19:09:26 89° SSW 19:13:35 10° ESE
Spot 2 Rocket 3.6 19:05:11 10° SSE 19:10:11 67° ENE 19:15:12 10° N
Terra 3.3 19:06:38 10° ESE 19:10:28 25° ENE 19:14:19 10° N
SPOT 1/Viking Rocket 4.0 19:05:41 10° SE 19:10:40 51° ENE 19:15:39 10° N
STARLINK-1244 3.6 19:06:45 10° SW 19:10:52 66° SSE 19:14:59 10° ENE
Cosmos 2151 Rocket 3.7 19:06:37 10° N 19:11:11 82° E 19:15:43 10° SSE
STARLINK-1245 4.1 19:09:29 10° W 19:13:37 65° N 19:17:45 10° ENE
STARLINK-1106 3.6 19:10:16 10° WNW 19:14:26 85° SSW 19:18:35 10° ESE
STARLINK-1138 3.6 19:11:44 10° WSW 19:15:50 70° SSE 19:19:58 10° ENE
Abrixas rocket 2.7 19:14:37 10° W 19:17:23 37° SSW 19:20:09 10° SE
ERBS 3.1 19:14:46 10° WSW 19:18:01 54° NNW 19:21:18 10° NE
STARLINK-1233 4.1 19:14:27 10° W 19:18:34 64° N 19:22:42 10° ENE
STARLINK-1112 3.6 19:15:13 10° WNW 19:19:23 81° SSW 19:23:32 10° ESE
STARLINK-1234 3.8 19:16:33 10° WNW 19:19:47 52° N 19:23:01 10° E
Aureole 2 4.4 19:16:56 10° NNW 19:20:07 57° ENE 19:23:02 10° SE
STARLINK-1143 3.6 19:16:40 10° WSW 19:20:47 73° SSE 19:24:56 10° ENE
STARLINK-1204 4.2 19:19:28 10° W 19:23:35 62° N 19:27:42 10° ENE
STARLINK-1128 3.6 19:20:12 10° WNW 19:24:21 78° SSW 19:28:29 10° ESE
STARLINK-1209 3.8 19:22:24 10° WNW 19:25:38 53° N 19:28:52 10° E
STARLINK-1241 3.6 19:21:40 10° WSW 19:25:48 77° SSE 19:29:57 10° ENE
Cosmos 1300 Rocket 4.2 19:21:55 10° NNW 19:26:18 58° W 19:30:40 10° S
STARLINK-1238 4.2 19:24:29 10° W 19:28:35 61° N 19:32:42 10° ENE
deb Kosmos-1763 4.0 19:25:34 10° NNW 19:29:11 84° ENE 19:32:46 10° SSE
STARLINK-1113 3.6 19:25:11 10° WNW 19:29:20 74° SSW 19:33:28 10° ESE
STARLINK-1239 3.6 19:26:37 10° WSW 19:30:46 81° SSE 19:34:55 10° ENE
USA 215 4.1 19:24:30 10° ENE 19:30:48 51° N 19:37:04 10° WNW
NOSS 8 (E) 4.1 19:27:43 10° SSW 19:30:52 64° SE 19:33:55 10° NE
Meteor 1-15 Rocket 4.4 19:27:02 10° N 19:33:01 80° ENE 19:38:56 10° SSE
Aureole 2 Rocket 2.2 19:30:18 10° S 19:33:19 50° ESE 19:36:13 10° NE
STARLINK-1201 4.2 19:29:28 10° W 19:33:34 60° N 19:37:42 10° ENE
NOSS 2-2 (D) 4.0 19:30:43 10° S 19:33:50 29° ESE 19:37:16 10° ENE
CENTAUR R/B 3.7 19:26:40 10° NW 19:34:12 54° NE 19:42:38 10° ESE
STARLINK-1119 3.7 19:30:12 10° WNW 19:34:20 70° SSW 19:38:26 10° ESE
Cosmos 1437 Rocket 2.6 19:31:15 10° S 19:35:03 83° E 19:38:54 10° NNE
STARLINK-1240 3.6 19:31:34 10° WSW 19:35:43 85° SSE 19:39:53 10° ENE
ATLAS 3B R/B 4.0 19:31:06 10° NW 19:37:11 35° NNE 19:43:24 10° E
Lacrosse 5 3.4 19:33:57 10° WNW 19:38:04 25° SW 19:42:10 10° S
Cosmos 304 Rocket 3.8 19:33:44 10° S 19:38:27 63° ESE 19:43:13 10° NNE
Cosmos 1378 4.0 19:35:07 10° SSE 19:38:29 33° E 19:41:50 10° NNE
STARLINK-1206 4.2 19:34:29 10° W 19:38:35 60° N 19:42:42 10° ENE
STARLINK-1114 3.7 19:35:09 10° WNW 19:39:16 66° SSW 19:43:11 11° SE
NOSS 3-2 (C) 4.4 19:32:12 10° NW 19:39:20 59° NE 19:47:28 10° ESE
STARLINK-1203 3.6 19:36:10 10° WSW 19:40:23 89° SSE 19:44:37 10° ENE
STARLINK-1216 3.6 19:36:32 10° WSW 19:40:42 88° SSE 19:44:51 10° ENE
CZ-2C R/B 4.0 19:36:12 10° N 19:41:30 44° WNW 19:46:47 10° SW
ISS -1.4 19:39:47 10° WSW 19:41:35 14° SW 19:43:24 10° S
STARLINK-1205 4.3 19:39:28 10° W 19:43:34 59° N 19:47:41 10° ENE
STARLINK-1130 (DARKSAT) 3.8 19:40:09 10° WNW 19:44:15 62° SSW 19:47:59 12° SE
STARLINK-1237 3.6 19:41:31 10° WSW 19:45:41 88° NNW 19:49:51 10° ENE
Cosmos 1674 Rocket 3.6 19:44:09 10° S 19:48:32 85° WNW 19:52:59 10° N
STARLINK-1218 4.3 19:44:29 10° W 19:48:35 58° N 19:52:41 10° ENE
STARLINK-1084 3.8 19:45:08 10° WNW 19:49:14 59° SSW 19:52:46 13° SE
STARLINK-1202 3.7 19:46:31 10° WSW 19:50:40 85° NNW 19:54:50 10° ENE
NOSS 2-2 (E) 3.3 19:47:30 10° SSW 19:51:00 51° SE 19:55:00 10° NE
Cosmos 1378 Rocket 3.5 19:47:03 10° S 19:51:26 80° E 19:55:51 10° NNE
EXPRESS MD2 3.8 19:49:05 10° SW 19:52:18 48° SSE 19:58:22 10° ENE
SL-27 R/B 3.5 19:49:50 10° N 19:53:10 34° ENE 19:55:55 13° ESE
STARLINK-1254 4.3 19:49:28 10° W 19:53:34 58° N 19:57:40 10° ENE
Cosmos 1766 3.5 19:50:12 10° N 19:54:09 57° ENE 19:57:24 14° SSE
STARLINK-1098 3.9 19:50:08 10° WNW 19:54:11 55° SSW 19:57:33 14° SE
Cosmos 2297 3.7 19:50:09 10° SSW 19:55:49 78° ESE 20:01:34 10° NNE
Cosmos 1943 Rocket 2.7 19:51:09 10° S 19:56:14 38° ESE 20:01:23 10° NE
Cosmos 1900 4.4 19:52:36 10° NW 19:57:40 87° SW 20:01:59 15° SE
STARLINK-1231 4.3 19:54:27 10° W 19:58:33 58° N 20:02:39 10° E
STARLINK-1123 3.9 19:55:06 10° WNW 19:59:08 52° SSW 20:02:19 15° SE
Cosmos 2082 Rocket 3.6 19:54:52 10° NW 19:59:50 31° WSW 20:04:47 10° SSW
IGS 5A 4.2 19:55:56 10° S 19:59:58 50° W 20:04:03 10° NNW
STARLINK-1246 3.8 19:56:30 10° WSW 20:00:39 79° NNW 20:04:48 10° ENE
Landsat 7 4.5 19:58:20 10° S 20:02:58 51° W 20:07:38 10° NNW
BREEZE-M DEB 3.4 20:00:35 10° SSW 20:02:59 33° SE 20:08:15 10° ENE
SeaSat 1 4.3 20:00:57 10° ENE 20:03:16 13° E 20:04:49 12° ESE
STARLINK-1232 4.3 19:59:28 10° W 20:03:34 58° N 20:07:40 10° E
STARLINK-1097 4.0 20:00:07 10° WNW 20:04:08 48° SSW 20:07:07 17° SE
STARLINK-1224 3.8 20:01:28 10° WSW 20:05:38 76° NNW 20:09:47 10° ENE
Meteor 1-23 Rocket 4.3 20:01:09 10° SSW 20:06:51 82° WNW 20:12:31 10° N
STARLINK-1208 4.3 20:04:26 10° W 20:08:32 58° N 20:12:38 10° E
STARLINK-1099 4.1 20:05:06 10° WNW 20:09:05 45° SSW 20:11:54 18° SSE
Cosmos 1461 3.3 20:05:16 10° SW 20:09:26 70° NW 20:13:52 10° NE
SAR-Lupe-2 4.4 20:06:26 10° N 20:09:58 52° WNW 20:13:28 10° SSW
STARLINK-1225 3.9 20:06:29 10° W 20:10:38 74° NNW 20:14:47 10° ENE
Cosmos 1975 Rocket 3.5 20:07:29 15° SSE 20:10:55 46° E 20:15:09 10° NNE
Cosmos 2369 Rocket 2.8 20:07:22 12° S 20:12:09 38° ESE 20:17:19 10° NE
STARLINK-1271 4.3 20:09:28 10° WNW 20:13:34 58° N 20:17:40 10° E
STARLINK-1104 4.2 20:10:05 10° WNW 20:14:01 42° SW 20:16:40 19° SSE
STARLINK-1212 3.3 20:12:28 10° WNW 20:15:33 63° NNE 20:18:39 10° E
NOSS 2-2 (C) 3.1 20:12:00 10° SSW 20:15:33 70° SE 20:19:38 10° NE
STARLINK-1230 3.9 20:11:28 10° W 20:15:37 71° NNW 20:19:45 10° ENE
STARLINK-1105 3.2 20:12:56 10° WNW 20:16:01 63° NNE 20:19:06 10° E
STARLINK-1247 3.2 20:13:48 10° WNW 20:16:55 64° NNE 20:19:59 10° E
STARLINK-1227 3.2 20:14:18 10° WNW 20:17:24 64° NNE 20:20:25 10° E
STARLINK-1226 3.2 20:15:09 10° WNW 20:18:16 64° NNE 20:21:16 11° E
STARLINK-1154 4.2 20:14:27 10° WNW 20:18:33 58° N 20:22:40 10° E
SPOT 5 3.3 20:14:18 13° S 20:18:59 72° WSW 20:24:21 10° NNW
STARLINK-1144 4.3 20:15:06 10° WNW 20:18:59 40° SW 20:21:27 19° SSE
STARLINK-1215 3.2 20:16:03 10° WNW 20:19:10 65° NNE 20:22:09 11° E
ATLAS 2AS CENTAUR R/B 3.8 20:13:12 12° S 20:19:32 32° ESE 20:26:21 10° NE
STARLINK-1243 4.0 20:16:28 10° W 20:20:37 69° NNW 20:24:45 10° ENE
NOSS 3-2 (A) 4.1 20:13:29 10° NW 20:20:53 77° SW 20:27:48 16° SSE
STARLINK-1217 3.2 20:17:52 10° WNW 20:20:59 66° NNE 20:23:53 11° E
Cosmos 2026 Rocket 4.2 20:15:52 14° SSE 20:21:14 58° E 20:27:28 10° NNE
STARLINK-1229 3.2 20:18:47 10° WNW 20:21:54 66° NNE 20:24:46 12° E
Meteor 1-22 Rocket 4.3 20:16:08 10° NNW 20:22:06 88° WSW 20:26:47 16° S
STARLINK-1270 3.2 20:19:40 10° WNW 20:22:47 67° NNE 20:25:38 12° E
STARLINK-1197 4.2 20:19:25 10° WNW 20:23:31 59° N 20:27:38 10° E
ATLAS CENTAUR R/B 3.4 20:23:28 13° ESE 20:23:34 13° ESE 20:25:34 10° E
STARLINK-1103 4.4 20:20:05 10° WNW 20:23:56 37° SW 20:26:14 20° SSE
ERS-1 Rocket 3.5 20:19:40 12° S 20:24:14 55° W 20:29:13 10° NNW
STARLINK-1189 3.1 20:21:28 10° WNW 20:24:35 68° NNE 20:27:21 12° E
STARLINK-1188 3.1 20:22:23 10° WNW 20:25:30 68° NNE 20:28:15 13° E
STARLINK-1236 4.0 20:21:27 10° W 20:25:35 67° NNW 20:29:43 10° ENE
STARLINK-1187 3.0 20:23:27 10° WNW 20:26:34 73° NNE 20:29:06 14° ESE
STARLINK-1191 3.1 20:24:49 10° WNW 20:27:56 70° NNE 20:30:32 14° E
Cosmos 1025 Rocket 4.3 20:26:06 18° SE 20:28:11 25° E 20:31:44 10° NNE
STARLINK-1198 4.2 20:24:25 10° WNW 20:28:32 59° N 20:32:38 10° E
STARLINK-1101 4.5 20:25:06 10° WNW 20:28:52 35° SW 20:31:00 21° SSE
STARLINK-1221 3.0 20:25:47 10° WNW 20:28:53 70° NNE 20:31:27 14° E
Okean 2 3.3 20:25:56 15° S 20:29:16 79° E 20:33:27 10° NNE
STARLINK-1222 3.0 20:26:38 10° WNW 20:29:44 71° NNE 20:32:16 14° E
STARLINK-1214 3.0 20:27:31 10° WNW 20:30:38 72° NNE 20:33:09 15° E
Cosmos 1953 3.9 20:29:24 10° NNE 20:32:43 24° ENE 20:35:00 15° ESE
USA 238 DEB 4.0 20:25:36 10° NW 20:32:44 67° SW 20:38:26 18° SSE
USA 238 4.0 20:25:42 10° NW 20:32:50 68° SW 20:38:32 18° SSE
STARLINK-1199 4.2 20:29:26 10° WNW 20:33:33 60° N 20:37:39 10° E
Okean 1 Rocket 4.5 20:29:36 10° NNW 20:33:38 33° W 20:37:37 10° SSW
Cosmos 968 Rocket 3.6 20:28:47 10° NNW 20:33:56 66° ENE 20:37:31 20° SE
Cosmos 1805 4.1 20:30:17 10° NNW 20:34:03 45° W 20:37:07 14° SSW
Cosmos 1470 3.2 20:30:34 10° N 20:34:21 49° ENE 20:36:30 23° SE
Resurs 01 Rocket 4.4 20:33:29 10° WSW 20:34:54 11° W 20:36:17 10° WNW
STARLINK-1228 3.1 20:31:36 10° WNW 20:35:06 88° NNE 20:37:42 17° ESE
STARLINK-1269 4.1 20:31:27 10° W 20:35:34 64° N 20:39:42 10° ENE
Nadezhda 4 Rocket 4.5 20:30:24 10° SSW 20:36:25 58° WNW 20:42:29 10° N
STARLINK-1235 2.9 20:35:13 10° WNW 20:38:27 88° NNE 20:40:37 20° ESE
STARLINK-1210 4.1 20:34:24 10° WNW 20:38:31 61° N 20:42:38 10° E
Cosmos 1455 Rocket 3.0 20:35:07 10° N 20:39:30 90° WSW 20:42:17 22° S
STARLINK-1200 4.1 20:36:25 10° W 20:40:33 63° N 20:44:40 10° ENE
STARLINK-1219 4.1 20:39:23 10° WNW 20:43:30 62° N 20:47:37 10° E
Meteor 2-13 Rocket 4.5 20:39:29 16° S 20:44:30 73° E 20:50:40 10° NNE
STARLINK-1192 4.1 20:41:26 10° W 20:45:34 62° N 20:49:40 10° ENE
Cosmos 1758 3.5 20:43:26 10° N 20:47:28 61° ENE 20:49:40 25° SSE
ATLAS CENTAUR R/B 3.5 20:46:28 10° NNW 20:47:36 14° NNE 20:48:53 10° NE
Terra 2.4 20:44:22 17° S 20:47:55 51° W 20:52:36 10° NNW
STARLINK-1211 4.1 20:44:23 10° WNW 20:48:31 63° N 20:52:38 10° E
SL-4 R/B 2.8 20:45:22 10° SSW 20:49:47 38° SE 20:54:16 10° ENE
STARLINK-1244 4.2 20:46:25 10° W 20:50:33 61° N 20:54:39 10° ENE
SL-4 R/B 3.2 20:50:27 11° ENE 20:50:50 12° ENE 20:51:44 10° NE
Cosmos 1842 3.3 20:48:52 19° SSW 20:51:36 78° W 20:55:31 10° N
Abrixas rocket 4.4 20:51:17 10° SW 20:51:50 11° SW 20:51:50 11° SW
STARLINK-1245 4.0 20:49:22 10° WNW 20:53:30 64° N 20:57:37 10° E
Cosmos 1503 Rocket 4.2 20:48:26 10° NNW 20:53:45 70° ENE 20:57:15 22° SE
STARLINK-1138 4.2 20:51:25 10° W 20:55:32 60° N 20:59:39 10° ENE
STARLINK-1234 2.9 20:52:59 10° WNW 20:56:15 72° SSW 20:57:44 30° SE
STARLINK-1233 4.0 20:54:19 10° WNW 20:58:28 66° NNE 21:02:35 10° E
STARLINK-1143 4.2 20:56:24 10° W 21:00:31 59° N 21:04:38 10° ENE
Cosmos 2263 4.2 20:57:25 17° S 21:01:44 63° ESE 21:07:17 10° NE
STARLINK-1209 3.0 20:58:57 10° WNW 21:02:13 64° SSW 21:03:27 34° SE
STARLINK-1204 3.9 20:59:19 10° WNW 21:03:28 68° NNE 21:07:36 10° E
STARLINK-1241 4.2 21:01:27 10° W 21:05:33 59° N 21:09:39 10° ENE
STARLINK-1238 3.9 21:04:19 10° WNW 21:08:29 70° NNE 21:12:37 10° E
STARLINK-1239 4.2 21:06:26 10° W 21:10:32 58° N 21:14:39 10° ENE
Cosmos 1536 Rocket 3.7 21:08:36 28° SSE 21:10:42 58° E 21:15:01 10° NNE
Meteor 1-21 4.3 21:07:51 17° SSW 21:12:15 82° WNW 21:17:54 10° N
COSMOS 2455 3.5 21:09:44 23° SSE 21:12:42 38° ESE 21:18:12 10° NE
Cosmos 1354 Rocket 4.0 21:07:43 10° NNW 21:13:04 87° ENE 21:16:12 25° SSE
STARLINK-1201 3.8 21:09:18 10° WNW 21:13:27 72° NNE 21:17:36 10° E
USA 215 3.4 21:06:54 10° ESE 21:13:28 77° NNE 21:20:01 10° WNW
Cosmos 1674 4.3 21:13:31 19° ESE 21:14:34 21° E 21:17:29 10° NE
STARLINK-1240 4.3 21:11:24 10° W 21:15:30 58° N 21:19:37 10° ENE
Cosmos 1833 4.2 21:10:13 10° NNW 21:15:52 75° WSW 21:19:13 25° SSE
Cosmos 1544 Rocket 4.0 21:11:59 10° NNW 21:16:14 53° W 21:18:39 24° SSW
Cosmos 1271 Rocket 2.7 21:14:22 28° S 21:16:20 89° ESE 21:20:18 10° NNE
Spot 4 3.8 21:14:22 26° SSE 21:17:07 85° ENE 21:22:00 10° NNW
Cosmos 1242 Rocket 2.9 21:15:26 22° SSW 21:17:35 60° WNW 21:21:16 10° N
Cosmos 2297 Rocket 4.1 21:13:49 10° NNW 21:18:21 24° NE 21:22:52 10° E
STARLINK-1206 3.8 21:14:18 10° WNW 21:18:27 74° NNE 21:22:36 10° ESE
STARLINK-1203 4.3 21:16:15 10° W 21:20:25 58° N 21:24:35 10° E
STARLINK-1216 4.3 21:16:24 10° W 21:20:30 58° N 21:24:36 10° E
STARLINK-60 2.9 21:20:10 26° SW 21:21:41 57° SSE 21:24:50 10° ENE
STARLINK-1205 3.7 21:19:16 10° WNW 21:23:26 77° NNE 21:27:32 10° ESE
CENTAUR R/B 3.4 21:17:27 10° NW 21:25:18 61° SW 21:31:08 22° SSE
STARLINK-1237 4.3 21:21:23 10° W 21:25:30 58° N 21:29:36 10° E
Cosmos 1707 2.7 21:24:35 31° S 21:26:23 88° W 21:30:18 10° N
Cosmos 1174 4.1 21:26:35 34° SE 21:26:49 34° ESE 21:30:14 10° NE
Lacrosse 4 Rocket 4.3 21:25:10 10° N 21:27:18 13° NNE 21:29:24 10° NE
Helios 1A 4.3 21:24:58 19° ESE 21:27:19 32° ENE 21:31:05 10° N
SL-27 R/B 4.4 21:25:21 10° NW 21:28:05 21° W 21:29:28 17° SW
STARLINK-1218 3.7 21:24:16 10° WNW 21:28:26 79° NNE 21:32:20 12° ESE
ATLAS 3B R/B 2.7 21:21:53 10° NW 21:28:42 87° NE 21:33:56 19° SE
NOSS 3-2 (C) 4.4 21:23:12 10° NW 21:30:26 51° WSW 21:35:37 23° S
STARLINK-1202 4.2 21:26:24 10° WNW 21:30:30 58° N 21:34:37 10° E
Cosmos 1726 2.0 21:27:44 10° N 21:31:29 86° E 21:32:50 38° SSE
ALOS 2 2.8 21:30:24 28° SE 21:32:34 62° ENE 21:36:55 10° N
Meteor 1-16 Rocket 4.1 21:27:17 10° N 21:32:51 79° ENE 21:35:51 27° SSE
STARLINK-1254 3.6 21:29:15 10° WNW 21:33:24 82° NNE 21:37:06 13° ESE
Cosmos 1867 3.7 21:29:56 10° NW 21:35:20 61° SW 21:38:06 28° SSE
COSMOS 2487 2.3 21:32:32 10° NNW 21:36:02 85° WSW 21:37:03 43° SSE
NOSS 5 (C) 4.3 21:34:40 10° NW 21:37:48 83° NE 21:39:14 34° SE
STARLINK-1231 3.6 21:34:13 10° WNW 21:38:23 85° NNE 21:41:52 14° ESE
Cosmos 1992 Rocket 4.0 21:36:08 20° SSW 21:39:45 84° WNW 21:45:00 10° NNE
Cosmos 1943 Rocket 3.3 21:34:39 10° WSW 21:39:56 43° NW 21:45:19 10° NNE
STARLINK-1246 4.2 21:36:24 10° WNW 21:40:30 59° N 21:44:37 10° E
NOSS 3-4 (A) 3.4 21:36:32 15° SSW 21:41:28 73° SE 21:47:52 10° NE
SeaSat 1 2.4 21:36:34 10° NNE 21:41:32 77° ESE 21:44:35 24° SSW
NOSS 3-4 (C) 3.4 21:36:40 16° SSW 21:41:35 73° SE 21:47:59 10° NE
Cosmos 1606 Rocket 4.0 21:38:17 10° N 21:42:32 52° ENE 21:44:29 29° SE
EO 1 Del DPAF 3.5 21:38:50 10° N 21:42:35 61° WNW 21:44:29 27° SW
STARLINK-1232 3.5 21:39:13 10° WNW 21:43:23 89° NNE 21:46:40 16° ESE
STARLINK-1224 4.2 21:41:23 10° WNW 21:45:29 59° N 21:49:36 10° E
FALCON 9 DEB 4.3 21:46:54 27° ESE 21:46:54 27° ESE 21:49:04 10° E
STARLINK-1208 3.5 21:44:10 10° WNW 21:48:20 88° SSW 21:51:25 18° ESE
Cosmos 2315 Rocket 4.0 21:42:14 10° N 21:48:28 75° E 21:52:08 26° SSE
STARLINK-1225 4.2 21:46:23 10° WNW 21:50:30 60° N 21:54:37 10° E
Meteor 2-10 4.3 21:46:15 10° NNW 21:51:10 54° W 21:53:43 27° SSW
STARLINK-1212 3.8 21:48:23 10° WNW 21:50:47 33° WSW 21:50:47 33° WSW
STARLINK-29 3.0 21:51:41 52° SE 21:51:41 52° SE 21:54:43 10° ENE
STARLINK-1105 3.8 21:48:52 10° W 21:51:13 33° WSW 21:51:13 33° WSW
STARLINK-1247 3.8 21:49:44 10° W 21:52:06 33° WSW 21:52:06 33° WSW
STARLINK-1227 3.9 21:50:14 10° W 21:52:32 32° WSW 21:52:32 32° WSW
STARLINK-1271 3.5 21:49:11 10° WNW 21:53:20 84° SSW 21:56:14 19° ESE
BREEZE-M DEB (TANK) 2.7 21:44:36 10° W 21:53:54 81° S 21:56:54 10° E
STARLINK-1226 3.9 21:51:06 10° W 21:53:24 31° WSW 21:53:24 31° WSW
BREEZE-M DEB (TANK) 2.9 21:50:55 10° W 21:54:22 59° SSW 21:59:00 10° ESE
S3M 4.4 21:48:23 10° NNW 21:54:23 55° W 21:58:10 23° SSW
RESURS DK-1 3.2 21:53:56 31° SE 21:54:47 34° ESE 21:58:34 10° NE
STARLINK-1215 3.9 21:52:00 10° W 21:54:16 31° WSW 21:54:16 31° WSW
STARLINK-1230 4.1 21:51:22 10° WNW 21:55:29 61° N 21:59:36 10° E
Cosmos 2227 Rocket 3.7 21:50:28 10° NNW 21:55:36 33° NE 22:00:42 10° ESE
Cosmos 2369 Rocket 3.2 21:50:42 10° SW 21:56:07 45° NW 22:01:32 10° NNE
STARLINK-1217 4.0 21:53:49 10° W 21:56:00 29° WSW 21:56:00 29° WSW
STARLINK-1229 4.1 21:54:44 10° W 21:56:54 29° WSW 21:56:54 29° WSW
Cosmos 2084 4.4 21:57:06 30° SE 21:57:51 32° ESE 22:01:49 10° ENE
STARLINK-1154 3.5 21:54:10 10° WNW 21:58:20 80° SSW 22:01:00 21° ESE
STARLINK-1270 4.1 21:55:38 10° W 21:57:46 28° WSW 21:57:46 28° WSW
STARLINK-1189 4.2 21:57:26 10° W 21:59:28 27° WSW 21:59:28 27° WSW
STARLINK-1243 4.1 21:56:22 10° WNW 22:00:29 62° N 22:04:37 10° E
Cosmos 1340 Rocket 3.4 21:57:05 10° NNW 22:01:01 49° W 22:02:31 32° SSW
STARLINK-1188 4.2 21:58:21 10° W 22:00:22 27° WSW 22:00:22 27° WSW
ATLAS CENTAUR R/B 1.3 21:59:35 26° SW 22:01:56 85° SE 22:06:02 10° NE
STARLINK-1187 4.5 21:59:31 10° W 22:01:14 23° WSW 22:01:14 23° WSW
Cosmos 1626 3.5 22:01:28 23° ESE 22:02:26 26° E 22:05:36 10° NNE
Aureole 3 2.9 21:59:40 10° NNW 22:02:54 58° W 22:03:24 48° SW
Thor Agena Rocket 4.3 21:58:05 10° N 22:03:12 50° WNW 22:07:12 16° SW
STARLINK-1197 3.5 21:59:07 10° WNW 22:03:17 76° SSW 22:05:46 23° ESE
STARLINK-1191 4.4 22:00:49 10° W 22:02:39 24° WSW 22:02:39 24° WSW
STARLINK-1221 4.4 22:01:47 10° W 22:03:34 24° WSW 22:03:34 24° WSW
STARLINK-1222 4.4 22:02:38 10° W 22:04:23 23° WSW 22:04:23 23° WSW
STARLINK-1236 4.1 22:01:20 10° WNW 22:05:28 63° N 22:09:36 10° E
Cosmos 1025 Rocket 4.2 22:02:58 18° SW 22:05:39 36° WNW 22:09:39 10° N
Cosmos 1908 3.1 22:02:19 10° NNW 22:06:09 83° W 22:07:21 42° S
STARLINK-1214 4.5 22:03:32 10° W 22:05:16 23° WSW 22:05:16 23° WSW
Nimbus 7 Rocket 4.4 22:00:11 10° NNE 22:06:18 88° WNW 22:10:05 25° SSW
STARLINK-1198 3.5 22:04:06 10° WNW 22:08:14 73° SSW 22:10:32 25° SE
Cosmos 1953 3.4 22:05:35 10° NNW 22:09:12 33° W 22:10:41 25° SW
Cosmos 1656 Rocket 4.1 22:04:50 14° SW 22:09:34 62° WNW 22:15:07 10° NNE
BREEZE M DEB (TANK) 3.7 22:07:37 10° W 22:14:01 - E 22:08:33 19° W
ATLAS 2AS CENTAUR R/B 3.1 22:01:56 10° SW 22:09:58 81° NW 22:17:56 10° NE
BREEZE-M DEB (TANK) 4.4 22:02:43 10° WNW 22:10:49 30° SW 22:11:56 27° SSW
STARLINK-1199 3.5 22:09:06 10° WNW 22:13:14 69° SSW 22:15:20 27° SE
Cosmos 2292 Rocket 3.5 22:13:24 33° SW 22:14:39 51° W 22:17:45 10° N
Landsat 4 4.1 22:11:27 10° NNE 22:15:04 48° E 22:16:01 38° SE
STARLINK-1269 4.0 22:11:20 10° WNW 22:15:28 65° N 22:19:35 10° E
STARLINK-1210 3.5 22:14:04 10° WNW 22:18:12 65° SSW 22:20:06 30° SE
KORONAS-FOTON 3.7 22:17:21 41° SSW 22:18:37 83° WNW 22:22:30 10° N
FALCON 9 R/B 4.2 22:19:35 18° SE 22:19:35 18° SE 22:25:02 10° ESE
SL-4 R/B 2.9 22:20:18 17° WNW 22:20:18 17° WNW 22:21:21 10° NW
STARLINK-1200 3.9 22:16:18 10° WNW 22:20:26 67° NNE 22:24:35 10° E
Cosmos 1777 Rocket 4.0 22:15:36 10° NNW 22:20:49 69° WSW 22:23:18 31° S
EO 1 Delta rocket 4.3 22:16:29 10° NNE 22:22:15 63° E 22:24:37 30° SSE
STARLINK-1219 3.6 22:19:03 10° WNW 22:23:09 61° SSW 22:24:52 32° SE
ATLAS 5 CENTAUR R/B 1.6 22:21:46 16° WSW 22:24:10 54° NW 22:26:14 10° NE
Cosmos 1809 Rocket 4.5 22:21:17 28° S 22:24:44 75° E 22:30:55 10° NNE
Cosmos 1356 Rocket 4.5 22:21:10 10° N 22:25:08 39° ENE 22:27:23 22° SE
STARLINK-1192 3.9 22:21:18 10° WNW 22:25:27 69° NNE 22:29:34 10° E
Cosmos 1892 Rocket 3.6 22:25:06 36° S 22:26:49 71° E 22:31:10 10° NNE
Cosmos 2228 3.2 22:22:53 10° NNW 22:27:04 57° W 22:28:36 35° SSW
STARLINK-52 2.8 22:26:28 44° WSW 22:27:22 81° SSE 22:30:36 10° ENE
Cosmos 1726 Rocket 3.6 22:23:33 10° NNW 22:27:52 70° W 22:29:31 36° S
STARLINK-1211 3.6 22:24:03 10° WNW 22:28:08 58° SSW 22:29:40 34° SSE
SL-4 R/B 2.3 22:24:27 10° WSW 22:29:19 90° S 22:34:09 10° ENE
STARLINK-1244 3.8 22:26:16 10° WNW 22:30:25 71° NNE 22:34:33 10° E
STARLINK-1320 4.0 22:31:42 30° ESE 22:31:42 30° ESE 22:33:43 10° ENE
STARLINK-1322 4.0 22:32:00 30° ESE 22:32:00 30° ESE 22:34:02 10° ENE
STARLINK-1324 4.0 22:32:21 30° ESE 22:32:21 30° ESE 22:34:24 10° ENE
STARLINK-1294 4.0 22:32:38 30° ESE 22:32:38 30° ESE 22:34:43 10° ENE
ERBS 4.2 22:28:44 10° NW 22:31:47 32° NNE 22:34:50 10° E
STARLINK-1261 4.0 22:32:58 30° ESE 22:32:58 30° ESE 22:35:02 10° ENE
Cosmos 1300 2.9 22:28:23 10° N 22:32:12 65° ENE 22:33:33 36° SSE
STARLINK-1325 4.0 22:33:18 31° ESE 22:33:18 31° ESE 22:35:24 10° ENE
STARLINK-1338 3.9 22:32:46 38° SE 22:32:46 38° SE 22:36:15 10° ENE
STARLINK-1333 3.9 22:33:40 31° ESE 22:33:40 31° ESE 22:35:47 10° ENE
STARLINK-1245 3.7 22:29:02 10° WNW 22:33:05 54° SSW 22:34:26 36° SSE
STARLINK-1334 3.9 22:33:58 31° ESE 22:33:58 31° ESE 22:36:06 10° ENE
Cosmos 921 Rocket 3.2 22:31:52 36° SSE 22:33:20 56° ESE 22:37:38 10° NNE
STARLINK-1326 3.9 22:34:18 32° ESE 22:34:18 32° ESE 22:36:26 10° ENE
YAOGAN 11 4.0 22:31:51 36° S 22:33:35 75° WSW 22:37:55 10° NNW
STARLINK-1323 3.9 22:34:36 32° ESE 22:34:36 32° ESE 22:36:45 10° ENE
STARLINK-1349 3.9 22:34:56 32° ESE 22:34:56 32° ESE 22:37:07 10° ENE
STARLINK-1336 3.9 22:35:16 33° ESE 22:35:16 33° ESE 22:37:27 10° ENE
STARLINK-1331 3.9 22:35:35 33° ESE 22:35:35 33° ESE 22:37:47 10° ENE
STARLINK-1344 3.8 22:35:54 33° ESE 22:35:54 33° ESE 22:38:06 10° ENE
STARLINK-1138 3.8 22:31:15 10° WNW 22:35:24 73° NNE 22:39:33 10° E
STARLINK-1343 3.8 22:36:14 33° ESE 22:36:14 33° ESE 22:38:27 10° ENE
Meteor 1-24 Rocket 3.7 22:33:05 30° S 22:35:44 69° E 22:41:13 10° NNE
STARLINK-1346 3.8 22:36:30 35° ESE 22:36:30 35° ESE 22:38:49 10° ENE
STARLINK-1328 3.8 22:36:54 34° ESE 22:36:54 34° ESE 22:39:09 10° ENE
STARLINK-1354 3.8 22:37:13 34° ESE 22:37:13 34° ESE 22:39:29 10° ENE
STARLINK-1347 3.8 22:37:33 35° ESE 22:37:33 35° ESE 22:39:49 10° ENE
STARLINK-1357 3.7 22:37:53 35° ESE 22:37:53 35° ESE 22:40:10 10° ENE
STARLINK-1335 3.7 22:38:12 35° ESE 22:38:12 35° ESE 22:40:31 10° ENE
STARLINK-1327 3.7 22:38:31 36° ESE 22:38:31 36° ESE 22:40:50 10° ENE
CZ-4C R/B 3.7 22:36:20 16° SE 22:37:57 19° ESE 22:41:46 10° ENE
STARLINK-1233 3.7 22:34:00 10° WNW 22:38:02 51° SSW 22:39:12 38° SSE
STARLINK-1340 3.7 22:38:51 36° ESE 22:38:51 36° ESE 22:41:12 10° ENE
STARLINK-1356 3.7 22:39:10 36° ESE 22:39:10 36° ESE 22:41:31 10° ENE
STARLINK-1345 3.7 22:39:28 37° ESE 22:39:28 37° ESE 22:41:50 10° ENE
STARLINK-1355 3.6 22:39:47 37° ESE 22:39:47 37° ESE 22:42:10 10° ENE
STARLINK-1371 3.7 22:39:09 41° SSE 22:39:19 42° SSE 22:42:53 10° ENE
STARLINK-1321 3.6 22:40:10 37° ESE 22:40:10 37° ESE 22:42:33 10° ENE
STARLINK-1358 3.6 22:40:29 38° ESE 22:40:29 38° ESE 22:42:53 10° ENE
STARLINK-1332 3.6 22:40:48 38° ESE 22:40:48 38° ESE 22:43:13 10° ENE
STARLINK-1143 3.7 22:36:13 10° WNW 22:40:23 76° NNE 22:44:32 10° ESE
Cosmos 1437 3.2 22:40:11 40° ESE 22:40:30 42° E 22:43:23 10° NNE
STARLINK-1348 3.6 22:41:05 38° ESE 22:41:05 38° ESE 22:43:30 10° ENE
STARLINK-1330 3.5 22:41:27 39° ESE 22:41:27 39° ESE 22:43:53 10° ENE
STARLINK-1363 3.5 22:41:47 39° ESE 22:41:47 39° ESE 22:44:14 10° ENE
STARLINK-1337 3.5 22:42:07 39° ESE 22:42:07 39° ESE 22:44:35 10° ENE
STARLINK-1342 3.5 22:42:25 40° ESE 22:42:25 40° ESE 22:44:54 10° ENE
STARLINK-1364 3.5 22:42:45 40° ESE 22:42:45 40° ESE 22:45:15 10° ENE
Resurs 1-4 Rocket 4.3 22:39:40 10° NE 22:42:19 14° E 22:44:58 10° ESE
STARLINK-1376 3.5 22:43:04 41° ESE 22:43:04 41° ESE 22:45:35 10° ENE
STARLINK-1341 3.7 22:42:21 43° SSE 22:42:38 44° SSE 22:46:14 10° ENE
STARLINK-1360 3.4 22:43:23 41° ESE 22:43:23 41° ESE 22:45:56 10° ENE
STARLINK-1204 3.8 22:39:00 10° WNW 22:43:00 48° SSW 22:43:59 39° S
Cosmos 220 Rocket 4.2 22:41:33 35° S 22:43:10 59° ESE 22:47:34 10° NNE
STARLINK-1361 3.4 22:43:43 41° ESE 22:43:43 41° ESE 22:46:16 10° ENE
STARLINK-1367 3.4 22:44:00 42° ESE 22:44:00 42° ESE 22:46:37 10° ENE
STARLINK-1366 3.4 22:44:23 42° ESE 22:44:23 42° ESE 22:46:57 10° ENE
SJ 16-02 2.2 22:39:48 10° NNW 22:44:06 46° ENE 22:47:11 18° SE
STARLINK-1241 3.7 22:41:14 10° WNW 22:45:25 78° NNE 22:49:33 10° ESE
STARLINK-1339 3.5 22:45:37 44° SSE 22:45:46 44° SSE 22:49:14 10° ENE
STARLINK-1374 3.6 22:45:33 44° SSE 22:45:57 46° SSE 22:49:34 10° ENE
STARLINK-1238 3.9 22:44:01 10° WNW 22:47:59 45° SSW 22:48:47 39° S
Helios 1B rocket 2.8 22:44:33 10° NNE 22:48:38 54° E 22:50:09 34° SSE
Cosmos 1980 Rocket 4.4 22:47:03 10° ESE 22:48:42 11° E 22:50:22 10° ENE
Cosmos 1674 3.8 22:48:20 24° WSW 22:49:54 34° WNW 22:53:24 10° N
STARLINK-1239 3.6 22:46:13 10° WNW 22:50:23 81° NNE 22:54:32 10° ESE
STARLINK-1377 3.5 22:52:00 44° S 22:52:39 50° SSE 22:56:21 10° ENE
STARLINK-1201 4.0 22:49:00 10° WNW 22:52:56 42° SW 22:53:33 39° S
Cosmos 1244 Rocket 4.5 22:51:03 27° SSW 22:54:40 80° W 23:00:52 10° N
STARLINK-1240 3.6 22:51:10 10° WNW 22:55:20 84° NNE 22:59:30 10° ESE
STARLINK-1353 3.5 22:55:17 43° SSW 22:56:03 53° SSE 22:59:45 10° ENE
CZ-2D R/B 4.2 22:52:49 10° NE 22:56:11 17° E 22:59:32 10° SE
USA 215 3.6 22:52:57 23° SSE 22:56:46 46° SW 23:03:02 10° WNW
STARLINK-60 3.7 22:54:43 10° W 22:57:51 53° N 23:01:00 10° ENE
STARLINK-1206 4.1 22:54:01 10° WNW 22:57:54 39° SW 22:58:21 37° SSW
COSMOS 2455 3.5 22:52:50 11° WSW 22:58:30 53° NW 23:04:25 10° NNE
Cosmos 2219 3.1 22:53:08 10° NNW 22:58:50 78° WSW 23:02:17 24° SSE
Cosmos 1745 Rocket 4.2 22:55:32 25° SSE 22:59:10 62° E 23:05:13 10° NNE
STARLINK-1375 3.4 22:58:33 42° SSW 22:59:28 55° SSE 23:03:10 10° ENE
STARLINK-1216 3.6 22:56:09 10° WNW 23:00:19 88° NNE 23:04:29 10° ESE
STARLINK-1203 3.6 22:56:14 10° WNW 23:00:27 88° NNE 23:04:40 10° ESE
GEOS 3 Rocket 4.4 22:55:33 10° ESE 23:00:37 53° NE 23:05:48 10° NW
STARLINK-1352 3.3 23:01:56 44° SSW 23:02:43 57° SSE 23:06:18 10° ENE
STARLINK-1205 4.1 22:59:01 10° WNW 23:02:51 36° SW 23:03:07 36° SSW
STARLINK-1350 3.4 23:01:49 41° SSW 23:02:51 58° SSE 23:06:35 10° ENE
Helios 1A 4.1 23:01:35 25° SW 23:02:53 30° W 23:06:36 10° NNW
Cosmos 2297 Rocket 2.1 22:57:27 10° NNW 23:03:09 86° WSW 23:07:00 21° SSE
Meteor 2-16 Rocket 4.4 23:00:55 27° S 23:04:28 84° E 23:10:37 10° NNE
STARLINK-1237 3.5 23:01:08 10° WNW 23:05:18 89° SSW 23:09:28 10° ESE
PSLV R/B 3.6 23:01:22 10° NNE 23:05:55 80° ESE 23:07:53 33° S
Lacrosse 4 Rocket 2.4 23:02:52 10° NNW 23:07:06 47° NE 23:11:11 10° ESE
STARLINK-1218 4.2 23:04:02 10° WNW 23:07:48 34° SW 23:07:55 34° SSW
STARLINK-1368 3.3 23:08:27 37° SW 23:09:45 64° SSE 23:13:31 10° ENE
Cosmos 2058 Rocket 3.8 23:06:05 10° NNW 23:10:15 41° W 23:11:58 28° SW
STARLINK-1202 3.5 23:06:07 10° WNW 23:10:17 85° SSW 23:14:27 10° ESE
Cosmos 1455 3.3 23:07:09 10° N 23:10:40 37° ENE 23:12:55 19° SE
Meteor 2-10 Rocket 4.0 23:05:45 10° N 23:10:55 55° ENE 23:14:39 18° SSE
Cosmos 1937 Rocket 4.1 23:07:32 10° NNW 23:12:43 56° ENE 23:17:39 11° SE
STARLINK-1254 4.4 23:09:02 10° W 23:12:41 32° SW 23:12:41 32° SW
Meteor 1-29 3.1 23:09:29 10° NNE 23:12:50 60° ESE 23:13:48 40° SSE
Cosmos 2082 4.1 23:07:23 10° NNW 23:13:02 64° ENE 23:18:37 10° SE
STARLINK-1369 3.3 23:11:47 34° SW 23:13:14 67° SSE 23:17:00 10° ENE
Cosmos 1898 Rocket 3.7 23:08:09 10° NNW 23:13:32 75° ENE 23:17:35 18° SSE
Cosmos 1626 Rocket 3.5 23:11:50 33° S 23:13:45 76° E 23:18:07 10° NNE
STARLINK-1372 3.3 23:15:07 32° SW 23:16:42 70° SSE 23:20:30 10° ENE
Meteor 2-5 Rocket 4.4 23:14:12 21° SW 23:17:39 46° WNW 23:23:05 10° N
STARLINK-1231 4.5 23:14:03 10° W 23:17:27 30° SW 23:17:27 30° SW
Starlink 7 placeholder 3.6 23:17:56 29° NNW 23:18:19 32° N 23:20:10 10° ENE
SeaSat 1 4.4 23:14:41 10° NNE 23:18:38 25° NW 23:22:35 10° W
ATLAS 3B R/B 3.9 23:13:21 10° WNW 23:18:42 25° WSW 23:21:10 20° SW
STARLINK-1378 3.3 23:18:28 30° SW 23:20:12 73° SSE 23:24:00 10° ENE
STARLINK-1246 3.5 23:16:06 10° WNW 23:20:15 78° SSW 23:24:24 10° ESE
SL-14 R/B 4.0 23:19:12 28° SW 23:20:44 42° WNW 23:24:26 10° N
Cosmos 192 4.4 23:18:27 29° S 23:20:57 73° ESE 23:25:55 10° NNE
IRAS Rocket 4.2 23:18:20 21° SSE 23:22:14 87° ENE 23:27:49 10° NNW
FALCON 9 DEB 3.3 23:20:07 15° W 23:22:49 72° NNW 23:26:17 10° ENE
STARLINK-1379 3.2 23:21:51 28° SW 23:23:42 75° SSE 23:27:31 10° ENE
STARLINK-1329 3.3 23:23:14 27° WSW 23:25:09 77° SSE 23:28:59 10° ENE
STARLINK-1224 3.5 23:21:04 10° WNW 23:25:13 74° SSW 23:29:21 10° ESE
SL-16 R/B 3.2 23:19:44 10° SE 23:25:41 54° ENE 23:31:41 10° N
STARLINK-29 3.6 23:24:34 10° W 23:27:44 55° N 23:30:54 10° ENE
CZ-4C R/B 4.5 23:24:34 14° SE 23:28:06 46° ENE 23:32:22 10° N
STARLINK-1362 3.3 23:26:40 25° WSW 23:28:44 80° SSE 23:32:34 10° ENE
Cosmos-2242 3.9 23:25:12 10° N 23:29:19 45° ENE 23:32:30 16° SE
ATLAS CENTAUR R/B 1.6 23:27:14 10° WNW 23:29:39 48° SW 23:34:30 10° SE
STARLINK-1225 3.5 23:26:04 10° WNW 23:30:12 70° SSW 23:34:20 10° ESE
Cosmos 1656 3.7 23:27:53 26° SSW 23:31:08 72° ESE 23:36:44 10° NNE
STARLINK-1373 3.3 23:30:05 24° WSW 23:32:19 83° SSE 23:36:10 10° ENE
RESURS DK-1 3.8 23:29:48 14° WSW 23:32:50 32° NW 23:36:36 10° NNE
STARLINK-1365 3.3 23:31:12 22° WSW 23:33:34 85° SSE 23:37:24 10° ENE
Cosmos 1386 Rocket 4.5 23:29:51 25° SSW 23:33:41 83° W 23:39:56 10° N
STARLINK-1230 3.5 23:31:02 10° WNW 23:35:10 66° SSW 23:39:17 10° SE
STARLINK-1390 3.3 23:33:34 22° WSW 23:35:56 85° SSE 23:39:46 10° ENE
Cosmos 1697 Rocket 3.3 23:32:47 22° S 23:36:05 46° ESE 23:41:29 10° NE
Cosmos 1812 Rocket 3.6 23:32:10 10° NNW 23:36:37 71° W 23:38:55 28° S
Cosmos 2084 4.3 23:33:36 14° WSW 23:37:13 49° NW 23:41:36 10° NE
SL-19 R/B 4.3 23:32:05 10° NNE 23:37:37 75° ESE 23:41:19 23° S
Cosmos 1626 3.6 23:36:00 19° WSW 23:37:39 26° WNW 23:40:51 10° NNW
DELTA 2 DEB (DPAF) 4.2 23:35:37 21° SSE 23:38:33 82° ENE 23:43:03 10° NNW
BREEZE-M R/B 3.0 23:32:54 10° WSW 23:38:54 60° SSE 23:42:05 10° E
Cosmos 990 Rocket 4.0 23:34:29 10° NNW 23:39:44 68° WSW 23:43:10 22° S
Cosmos 2227 Rocket 2.4 23:34:24 10° NW 23:39:57 55° WSW 23:43:30 22° S
STARLINK-1243 3.5 23:36:03 10° WNW 23:40:09 63° SSW 23:44:15 10° SE
CZ-4 R/B 4.4 23:36:27 10° N 23:41:03 47° WNW 23:43:50 22° SW
ATLAS CENTAUR R/B 3.6 23:37:59 10° W 23:41:18 22° NNW 23:44:28 10° NNE
STARLINK-1236 3.6 23:41:01 10° WNW 23:45:06 59° SSW 23:49:11 10° SE
USA 81 4.1 23:42:28 23° S 23:45:50 80° E 23:51:09 10° N
Cosmos 1825 Rocket 4.0 23:44:53 22° SSE 23:47:28 53° E 23:51:43 10° NNE
Alouette 2 Rocket 3.8 23:42:10 10° NNW 23:47:58 90° NNE 23:50:43 21° SSE
Cosmos 1709 Rocket 4.0 23:44:10 21° S 23:48:23 80° E 23:54:35 10° NNE
Cosmos 1602 Rocket 3.7 23:47:23 27° SSW 23:49:35 61° WNW 23:53:54 10° N
Cosmos 2285 Rocket 4.0 23:47:14 10° NNW 23:53:39 87° WSW 00:00:00 10° SSE
STARLINK-1269 3.7 23:51:00 10° WNW 23:55:03 52° SSW 23:59:04 10° SE
STARLINK 1040 4.1 23:55:45 21° SE 23:55:45 21° SE 23:57:27 10° E
